Chelan, Washington, United States (98816)
Lat: 47.84N, Lon: 120.02W
Wx Zone: WAZ041
Local Info
Past Weather Observations for Today

NOTE: This archive is for the closest National Weather Service station to Chelan. Information may differ from the station used for current weather conditions.

Click here for Long-term Archive

Time Weather Temperature Dewpoint Humidity Pressure Winds Precip Visibility
21:55
Clear
57°F / 14°C 37°F / 3°C 48% 29.74 in
(1007 mb)
NW 21.9 mph
(NW 35 kph)
- 10SM
20:55
Clear
57°F / 14°C 43°F / 6°C 59% 29.74 in
(1007 mb)
WNW 19.6 mph
(WNW 32 kph)
0.00 in
(0.00 mm)
10SM
19:55
Partly Cloudy
64°F / 18°C 37°F / 3°C 37% 29.71 in
(1006 mb)
WNW 21.9 mph
(WNW 35 kph)
- 10SM
18:55
Partly Cloudy
66°F / 19°C 43°F / 6°C 43% 29.71 in
(1006 mb)
W 11.5 mph
(W 19 kph)
- 10SM
17:55
Clear
70°F / 21°C 43°F / 6°C 38% 29.68 in
(1005 mb)
W 19.6 mph
(W 32 kph)
- 10SM
16:55
Clear
73°F / 23°C 43°F / 6°C 33% 29.68 in
(1005 mb)
SSW 23 mph
(SSW 37 kph)
- 10SM
15:55
Mostly Cloudy
73°F / 23°C 43°F / 6°C 33% 29.71 in
(1006 mb)
SSW 23 mph
(SSW 37 kph)
- 10SM
14:55
Partly Cloudy
82°F / 28°C 41°F / 5°C 23% 29.68 in
(1005 mb)
W 21.9 mph
(W 35 kph)
- 10SM
13:55
Clear
81°F / 27°C 39°F / 4°C 23% 29.71 in
(1006 mb)
W 12.7 mph
(W 20 kph)
- 10SM
12:55
Clear
79°F / 26°C 41°F / 5°C 26% 29.71 in
(1006 mb)
NW 8.1 mph
(NW 13 kph)
- 10SM
11:55
Clear
75°F / 24°C 41°F / 5°C 29% 29.74 in
(1007 mb)
SSW 6.9 mph
(SSW 11 kph)
- 10SM
10:55
Clear
75°F / 24°C 41°F / 5°C 29% 29.77 in
(1008 mb)
NW 8.1 mph
(NW 13 kph)
- 10SM
09:55
Clear
75°F / 24°C 41°F / 5°C 29% 29.8 in
(1009 mb)
NW 16.1 mph
(NW 26 kph)
- 10SM
08:55
Clear
72°F / 22°C 43°F / 6°C 36% 29.8 in
(1009 mb)
WNW 10.4 mph
(WNW 17 kph)
- 10SM
07:55
Clear
66°F / 19°C 45°F / 7°C 46% 29.83 in
(1010 mb)
NW 8.1 mph
(NW 13 kph)
- 10SM
06:55
Clear
63°F / 17°C 45°F / 7°C 52% 29.83 in
(1010 mb)
WNW 6.9 mph
(WNW 11 kph)
- 10SM
05:55
Clear
61°F / 16°C 45°F / 7°C 55% 29.86 in
(1011 mb)
WNW 8.1 mph
(WNW 13 kph)
- 10SM
04:55
Clear
57°F / 14°C 45°F / 7°C 63% 29.86 in
(1011 mb)
N 3.5 mph
(N 6 kph)
- 10SM
03:55
Clear
59°F / 15°C 45°F / 7°C 59% 29.86 in
(1011 mb)
NNW 5.8 mph
(NNW 9 kph)
- 10SM
02:55
Clear
61°F / 16°C 45°F / 7°C 55% 29.89 in
(1012 mb)
NW 5.8 mph
(NW 9 kph)
- 10SM
01:55
Clear
61°F / 16°C 45°F / 7°C 55% 29.89 in
(1012 mb)
NNW 3.5 mph
(NNW 6 kph)
- 10SM
00:55
Clear
64°F / 18°C 45°F / 7°C 49% 29.89 in
(1012 mb)
WNW 10.4 mph
(WNW 17 kph)
- 10SM
Time Weather Temperature Dewpoint Humidity Pressure Winds Precip Visibility


Weather for websites

WeatherForYou.com, LLC is not responsible for any damages or problems caused by this service. Current weather conditions are obtained from the closest station including government and personal stations which may have varying degrees of accuracy. Weather forecasts are derived from the NOAA NDFD. Like all things, this site belongs to Jesus Christ... He just trusts me to maintain it. If you have any questions or comments email webmaster@weatherforyou.com

Copyright © 2014, WeatherForYou.com LLC. All rights reserved.